This is the latest recevied weather packets stored in our database for station/object OE3APM-13. If no packets are shown the sender has not sent any weather packets the latest 1 day(s).
| Time | Temp. | Humidity | Pressure | Rain* | Wind** | Luminosity | Snow |
|---|---|---|---|---|---|---|---|
| 1778004496 | 21.67° C | 48% | 1003.4 hPa | 0 mm | 0 m/s | 0 W/m² | - |
| 1778004194 | 21.67° C | 48% | 1003.4 hPa | 0 mm | 0 m/s | 0 W/m² | - |
| 1778003892 | 22.22° C | 48% | 1003.4 hPa | 0 mm | 0 m/s | 0 W/m² | - |
| 1778003592 | 22.22° C | 44% | 1003.4 hPa | 0 mm | 0 m/s | 0 W/m² | - |
| 1778003288 | 22.78° C | 43% | 1003.4 hPa | 0 mm | 0 m/s | 0 W/m² | - |
| 1778002988 | 23.33° C | 41% | 1003.5 hPa | 0 mm | 0 m/s | 0 W/m² | - |
| 1778002689 | 23.33° C | 39% | 1003.5 hPa | 0 mm | 0 m/s | 0 W/m² | - |
| 1778002389 | 23.33° C | 39% | 1003.5 hPa | 0 mm | 0.45 m/s, 123° | 0 W/m² | - |
| 1778002092 | 23.89° C | 38% | 1003.5 hPa | 0 mm | 0.89 m/s, 123° | 7 W/m² | - |
| 1778001788 | 23.89° C | 35% | 1003.5 hPa | 0 mm | 0.89 m/s, 123° | 14 W/m² | - |
| 1778001488 | 23.89° C | 35% | 1003.5 hPa | 0 mm | 0.89 m/s, 123° | 28 W/m² | - |
| 1778001185 | 24.44° C | 35% | 1003.5 hPa | 0 mm | 0.89 m/s, 128° | 42 W/m² | - |
| 1778000884 | 24.44° C | 34% | 1003.7 hPa | 0 mm | 0.89 m/s, 131° | 60 W/m² | - |
| 1778000583 | 24.44° C | 34% | 1003.7 hPa | 0 mm | 0.89 m/s, 107° | 67 W/m² | - |
| 1778000278 | 24.44° C | 33% | 1003.7 hPa | 0 mm | 0.89 m/s, 100° | 70 W/m² | - |
| 1777999978 | 25° C | 33% | 1003.8 hPa | 0 mm | 0.89 m/s, 117° | 98 W/m² | - |
| 1777999678 | 25° C | 33% | 1003.7 hPa | 0 mm | 1.34 m/s, 142° | 76 W/m² | - |
| 1777999375 | 25° C | 31% | 1003.7 hPa | 0 mm | 1.34 m/s, 129° | 107 W/m² | - |
| 1777999065 | 25° C | 32% | 1003.8 hPa | 0 mm | 1.79 m/s, 119° | 120 W/m² | - |
| 1777998763 | 25° C | 32% | 1003.9 hPa | 0 mm | 2.24 m/s, 140° | 156 W/m² | - |
| 1777998458 | 25° C | 32% | 1003.9 hPa | 0 mm | 1.79 m/s, 146° | 192 W/m² | - |
| 1777998157 | 25.56° C | 33% | 1003.9 hPa | 0 mm | 1.79 m/s, 134° | 192 W/m² | - |
| 1777997857 | 25.56° C | 32% | 1004 hPa | 0 mm | 2.68 m/s, 138° | 188 W/m² | - |
| 1777997558 | 25.56° C | 31% | 1004.1 hPa | 0 mm | 2.24 m/s, 144° | 163 W/m² | - |
| 1777997256 | 25.56° C | 32% | 1004.1 hPa | 0 mm | 1.79 m/s, 148° | 183 W/m² | - |
* Rain latest hour (hover to see other rain measurements)
** Current wind speed in m/s (hover to see current wind gust speed)